• En España
  • Lista de países
  • Para 7 días
  • Temperatura del agua
  • Mapa Satelital
  • El tiempo en el mapa
  • Informadores
  • user-avatar
    Iniciar sesión

    Tiempo cada hora Shapshi

    Hoy, 16 Agosto, Jueves

    Tiempo Temperatura Precipitaciones Viento Presión Humedad
    00:00 +17°C° 0 mm 4 mps 750 mmHg 73%
    01:00 +17°C° 0,4 mm 4 mps 750 mmHg 76%
    02:00 +15°C° 0,4 mm 5 mps 749 mmHg 79%
    03:00 +15°C° 0,4 mm 5 mps 749 mmHg 82%
    04:00 +16°C° 0,4 mm 5 mps 749 mmHg 84%
    05:00 +16°C° 0,4 mm 5 mps 748 mmHg 86%
    06:00 +16°C° 0,4 mm 5 mps 748 mmHg 88%
    07:00 +17°C° 0,6 mm 6 mps 748 mmHg 87%
    08:00 +20°C° 0,6 mm 6 mps 748 mmHg 85%
    09:00 +21°C° 0,6 mm 6 mps 747 mmHg 83%
    10:00 +22°C° 0,1 mm 6 mps 748 mmHg 79%
    11:00 +24°C° 0,1 mm 6 mps 748 mmHg 74%
    12:00 +26°C° 0,1 mm 6 mps 748 mmHg 69%
    13:00 +26°C° 0,5 mm 6 mps 748 mmHg 69%
    14:00 +26°C° 0,5 mm 6 mps 748 mmHg 68%
    15:00 +26°C° 0,5 mm 6 mps 748 mmHg 68%
    16:00 +24°C° 0,2 mm 6 mps 748 mmHg 73%
    17:00 +22°C° 0,2 mm 5 mps 748 mmHg 77%
    18:00 +21°C° 0,2 mm 4 mps 749 mmHg 82%
    19:00 +20°C° 0 mm 4 mps 749 mmHg 86%
    20:00 +18°C° 0 mm 4 mps 749 mmHg 90%
    21:00 +15°C° 0 mm 4 mps 750 mmHg 94%
    22:00 +16°C° 0 mm 3 mps 750 mmHg 94%
    23:00 +14°C° 0 mm 3 mps 750 mmHg 95%

    Mañana, 17 Agosto, Viernes

    Tiempo Temperatura Precipitaciones Viento Presión Humedad
    00:00 +13°C° 0 mm 3 mps 750 mmHg 95%
    01:00 +13°C° 0 mm 3 mps 751 mmHg 95%
    02:00 +12°C° 0 mm 3 mps 751 mmHg 95%
    03:00 +11°C° 0 mm 3 mps 752 mmHg 95%
    04:00 +12°C° 0 mm 3 mps 752 mmHg 94%
    05:00 +12°C° 0 mm 3 mps 752 mmHg 92%
    06:00 +12°C° 0 mm 3 mps 753 mmHg 90%
    07:00 +14°C° 0 mm 3 mps 753 mmHg 84%
    08:00 +17°C° 0 mm 4 mps 753 mmHg 78%
    09:00 +18°C° 0 mm 4 mps 754 mmHg 71%
    10:00 +19°C° 0 mm 4 mps 754 mmHg 66%
    11:00 +20°C° 0 mm 4 mps 754 mmHg 61%
    12:00 +21°C° 0 mm 4 mps 754 mmHg 56%
    13:00 +21°C° 0 mm 4 mps 754 mmHg 55%
    14:00 +21°C° 0 mm 4 mps 754 mmHg 54%
    15:00 +21°C° 0 mm 4 mps 753 mmHg 53%
    16:00 +20°C° 0 mm 4 mps 754 mmHg 58%
    17:00 +19°C° 0 mm 3 mps 754 mmHg 63%
    18:00 +18°C° 0 mm 3 mps 754 mmHg 68%
    19:00 +17°C° 0 mm 3 mps 754 mmHg 71%
    20:00 +16°C° 0 mm 3 mps 754 mmHg 74%
    21:00 +13°C° 0 mm 3 mps 755 mmHg 77%
    22:00 +12°C° 0 mm 3 mps 755 mmHg 79%
    23:00 +12°C° 0 mm 3 mps 755 mmHg 80%

    Pasado mañana, 18 Agosto, Sábado

    Tiempo Temperatura Precipitaciones Viento Presión Humedad
    00:00 +11°C° 0 mm 3 mps 755 mmHg 81%
    01:00 +11°C° 0 mm 3 mps 755 mmHg 83%
    02:00 +10°C° 0 mm 3 mps 755 mmHg 85%
    03:00 +10°C° 0 mm 3 mps 755 mmHg 87%
    04:00 +10°C° 0 mm 3 mps 756 mmHg 85%
    05:00 +11°C° 0 mm 3 mps 756 mmHg 84%
    06:00 +11°C° 0 mm 3 mps 756 mmHg 82%
    07:00 +12°C° 0 mm 4 mps 756 mmHg 75%
    08:00 +14°C° 0 mm 4 mps 756 mmHg 68%
    09:00 +15°C° 0 mm 5 mps 756 mmHg 62%
    10:00 +16°C° 0 mm 5 mps 756 mmHg 60%
    11:00 +17°C° 0 mm 5 mps 756 mmHg 58%
    12:00 +19°C° 0 mm 5 mps 756 mmHg 56%
    13:00 +19°C° 0 mm 5 mps 756 mmHg 56%
    14:00 +19°C° 0 mm 5 mps 756 mmHg 56%
    15:00 +19°C° 0 mm 5 mps 756 mmHg 56%
    16:00 +18°C° 0 mm 4 mps 756 mmHg 61%
    17:00 +17°C° 0 mm 4 mps 756 mmHg 65%
    18:00 +17°C° 0 mm 3 mps 756 mmHg 70%
    19:00 +14°C° 0 mm 3 mps 756 mmHg 73%
    20:00 +14°C° 0 mm 2 mps 756 mmHg 76%
    21:00 +12°C° 0 mm 2 mps 756 mmHg 79%
    22:00 +12°C° 0 mm 2 mps 756 mmHg 79%
    23:00 +10°C° 0 mm 2 mps 757 mmHg 80%

    19 Agosto, Domingo

    Tiempo Temperatura Precipitaciones Viento Presión Humedad
    00:00 +10°C° 0 mm 2 mps 757 mmHg 80%
    01:00 +9°C° 0 mm 2 mps 757 mmHg 82%
    02:00 +9°C° 0 mm 2 mps 757 mmHg 83%
    03:00 +9°C° 0 mm 2 mps 757 mmHg 85%
    04:00 +9°C° 0 mm 2 mps 757 mmHg 84%
    05:00 +10°C° 0 mm 2 mps 757 mmHg 83%
    06:00 +10°C° 0 mm 2 mps 757 mmHg 82%
    07:00 +13°C° 0 mm 2 mps 757 mmHg 76%
    08:00 +14°C° 0 mm 3 mps 757 mmHg 69%
    09:00 +17°C° 0 mm 3 mps 757 mmHg 62%
    10:00 +18°C° 0 mm 3 mps 757 mmHg 58%
    11:00 +19°C° 0 mm 3 mps 757 mmHg 54%
    12:00 +20°C° 0 mm 3 mps 756 mmHg 50%
    13:00 +20°C° 0 mm 3 mps 756 mmHg 49%
    14:00 +20°C° 0 mm 2 mps 756 mmHg 49%
    15:00 +21°C° 0 mm 2 mps 756 mmHg 48%
    16:00 +20°C° 0 mm 2 mps 755 mmHg 53%
    17:00 +20°C° 0 mm 1 mps 755 mmHg 58%
    18:00 +19°C° 0 mm 1 mps 755 mmHg 64%
    19:00 +16°C° 0 mm 1 mps 755 mmHg 67%
    20:00 +15°C° 0 mm 1 mps 755 mmHg 70%
    21:00 +14°C° 0 mm 1 mps 755 mmHg 73%
    22:00 +13°C° 0 mm 1 mps 755 mmHg 74%
    23:00 +13°C° 0 mm 1 mps 755 mmHg 75%

    20 Agosto, Lunes

    Tiempo Temperatura Precipitaciones Viento Presión Humedad
    00:00 +13°C° 0 mm 1 mps 755 mmHg 76%
    01:00 +12°C° 0 mm 1 mps 755 mmHg 78%
    02:00 +12°C° 0 mm 1 mps 755 mmHg 79%
    03:00 +11°C° 0 mm 1 mps 755 mmHg 81%
    04:00 +12°C° 0 mm 1 mps 755 mmHg 80%
    05:00 +13°C° 0 mm 1 mps 755 mmHg 80%
    06:00 +13°C° 0 mm 1 mps 755 mmHg 79%
    07:00 +15°C° 0 mm 2 mps 754 mmHg 74%
    08:00 +17°C° 0 mm 2 mps 754 mmHg 68%
    09:00 +19°C° 0 mm 2 mps 754 mmHg 63%
    10:00 +20°C° 0 mm 2 mps 754 mmHg 60%
    11:00 +21°C° 0 mm 3 mps 754 mmHg 57%
    12:00 +22°C° 0 mm 3 mps 753 mmHg 53%
    13:00 +22°C° 0 mm 3 mps 753 mmHg 53%
    14:00 +24°C° 0 mm 3 mps 753 mmHg 53%
    15:00 +24°C° 0 mm 3 mps 753 mmHg 53%
    16:00 +22°C° 0 mm 3 mps 752 mmHg 58%
    17:00 +21°C° 0 mm 3 mps 752 mmHg 64%
    18:00 +20°C° 0 mm 2 mps 752 mmHg 69%
    19:00 +19°C° 0 mm 3 mps 752 mmHg 71%
    20:00 +18°C° 0 mm 3 mps 752 mmHg 74%
    21:00 +17°C° 0 mm 3 mps 752 mmHg 76%
    22:00 +16°C° 0 mm 3 mps 752 mmHg 77%
    23:00 +16°C° 0 mm 3 mps 752 mmHg 79%

    21 Agosto, Martes

    Tiempo Temperatura Precipitaciones Viento Presión Humedad
    00:00 +14°C° 0 mm 3 mps 751 mmHg 80%
    01:00 +14°C° 0 mm 3 mps 751 mmHg 81%
    02:00 +14°C° 0 mm 3 mps 751 mmHg 82%
    03:00 +14°C° 0 mm 3 mps 751 mmHg 83%
    04:00 +14°C° 0 mm 3 mps 751 mmHg 82%
    05:00 +14°C° 0 mm 3 mps 751 mmHg 81%
    06:00 +16°C° 0 mm 3 mps 751 mmHg 80%
    07:00 +17°C° 0 mm 3 mps 751 mmHg 77%
    08:00 +18°C° 0 mm 3 mps 751 mmHg 75%
    09:00 +19°C° 0 mm 3 mps 751 mmHg 72%
    10:00 +21°C° 0 mm 3 mps 751 mmHg 70%
    11:00 +22°C° 0 mm 3 mps 751 mmHg 67%
    12:00 +23°C° 0 mm 4 mps 751 mmHg 64%
    13:00 +23°C° 0,7 mm 4 mps 751 mmHg 65%
    14:00 +25°C° 0,7 mm 4 mps 750 mmHg 66%
    15:00 +25°C° 0,7 mm 4 mps 750 mmHg 67%
    16:00 +24°C° 0,5 mm 3 mps 750 mmHg 71%
    17:00 +22°C° 0,5 mm 3 mps 750 mmHg 75%
    18:00 +21°C° 0,5 mm 2 mps 750 mmHg 80%
    19:00 +20°C° 0,1 mm 2 mps 750 mmHg 83%
    20:00 +19°C° 0,1 mm 2 mps 750 mmHg 86%
    21:00 +17°C° 0,1 mm 2 mps 750 mmHg 89%
    22:00 +17°C° 0 mm 2 mps 750 mmHg 90%
    23:00 +18°C° 0 mm 1 mps 750 mmHg 90%
    Mostrar más